Regional Weather Roundup
Issued by NWS

Home | Current Version | Previous Version | Text Only | Print | Product List | Glossary On
Versions: 1 2 3 4 5 6 7 8 9 10 11 12 13 14 15 16 17 18 19 20 21 22 23 24 25 26 27 28 29 30 31 32 33 34 35 36 37 38 39 40 41 42 43 44 45 46 47 48 49 50
000
ASPQ40 PGUM 231112
RWRPQ
WEATHER ROUNDUP FOR THE MARIANAS AND MICRONESIA
NATIONAL WEATHER SERVICE TIYAN GU
900 PM CHST THU MAR 23 2017

GUZ001>004-231200-
MARIANA ISLANDS-

CITY           SKY/WX    TMP DP  RH WIND       PRES   REMARKS
GUAM AIRPORT   CLEAR     81  73  78 E7        29.94R
ANDERSEN AFB   PTCLDY    79  73  83 E9        29.95R
ROTA AIRPORT   NOT AVBL
TINIAN AP      NOT AVBL
SAIPAN AP      CLOUDY    75  75 100 NW5       29.94R

$$

PMZ161-231200-
REPUBLIC OF PALAU-

CITY           SKY/WX    TMP DP  RH WIND       PRES   REMARKS
KOROR AP       MOCLDY    81  75  83 E7        29.87R
KOROR WSO      MOCLDY    81  75  83 NE5       29.88R

$$

PMZ171>174-231200-
FEDERATED STATES OF MICRONESIA-

CITY           SKY/WX    TMP DP  RH WIND       PRES   REMARKS
YAP AIRPORT    MOCLDY    82  75  78 VRB5      29.87R
CHUUK AP       CLOUDY    82  77  83 E8        29.88R HX  91
POHNPEI AP     NOT AVBL
POHNPEI WSO    MOCLDY    79  75  89 S3        29.92S
KOSRAE AP      NOT AVBL

$$

PMZ181-231200-
REPUBLIC OF THE MARSHALL ISLANDS-

CITY           SKY/WX    TMP DP  RH WIND       PRES   REMARKS
KWAJALEIN AP   CLEAR     82  77  83 E15       29.91S HX  91
MAJURO AP      NOT AVBL
MAJURO WSO     PTCLDY    84  77  79 NE13      29.86S HX  94

$$




USA.gov is the U.S. government's official web portal to all federal, state and local government web resources and services.